Bellefontaine, OH

5:06 AM EST on December 09, 2016 (GMT -0500)
Bellefontaine

Weather History for KEDJ - December, 2012

Change the Weather History Date:

Tuesday, December 4, 2012

  Actual Average (KDAY) Record (KDAY)
Temperature  
Mean Temperature 50 °F -  
Max Temperature 60 °F 42 °F 68 °F (1998)
Min Temperature 37 °F 27 °F 9 °F (1991)
Degree Days  
Heating Degree Days 16    
Moisture  
Dew Point 48 °F    
Average Humidity 90    
Maximum Humidity 100    
Minimum Humidity 77    
Precipitation  
Precipitation 0.32 in - - ()
Sea Level Pressure  
Sea Level Pressure 30.05 in    
Wind  
Wind Speed 12 mph (SW)    
Max Wind Speed 20 mph    
Max Gust Speed 26 mph    
Visibility 9 miles    
Events      
Averages and records for this station are not official NWS values.
T = Trace of Precipitation, MM = Missing Value Source: NWS Daily Summary

Daily Weather History Graph

Daily Weather History Graph

Search for Another Location

Airport or City:

Trip Planner

Search our weather history database for the weather conditions in past years. The results will help you decide how hot, cold, wet, or windy it might be!

Date:

Astronomy

Dec. 04, 2012 Rise Set
Actual Time 7:42 AM EST 5:08 PM EST
Civil Twilight 7:12 AM EST 5:39 PM EST
Nautical Twilight 6:38 AM EST 6:13 PM EST
Astronomical Twilight 6:05 AM EST 6:46 PM EST
Moon 10:56 PM EST (12/4) 11:35 AM EST (12/4)
Length of Visible Light 10h 27m
Length of Day
9h 26m
Waning Gibbous, 69% of the Moon is Illuminated
Dec 4
Waning Gibbous
Dec 6
Last Quarter
Dec 13
New
Dec 20
First Quarter
Dec 28
Full

Hourly Weather History & Observations

Time (EST) Temp. Windchill Dew Point Humidity Pressure Visibility Wind Dir Wind Speed Gust Speed Precip Events Conditions
12:10 AM 59.0 °F - 53.6 °F 82% 30.05 in 10.0 mi South 13.8 mph - 0.00 in   Scattered Clouds
12:30 AM 59.0 °F - 53.6 °F 82% 30.04 in 10.0 mi South 13.8 mph 20.7 mph 0.00 in   Mostly Cloudy
12:50 AM 59.0 °F - 51.8 °F 77% 30.04 in 10.0 mi South 13.8 mph 20.7 mph 0.00 in   Scattered Clouds
1:10 AM 57.2 °F - 51.8 °F 82% 30.04 in 10.0 mi South 13.8 mph - 0.00 in   Scattered Clouds
1:30 AM 57.2 °F - 51.8 °F 82% 30.04 in 10.0 mi South 13.8 mph - 0.00 in   Mostly Cloudy
1:50 AM 57.2 °F - 51.8 °F 82% 30.04 in 10.0 mi South 11.5 mph - 0.00 in   Mostly Cloudy
2:10 AM 57.2 °F - 51.8 °F 82% 30.04 in 10.0 mi South 11.5 mph - 0.00 in   Mostly Cloudy
2:30 AM 57.2 °F - 51.8 °F 82% 30.04 in 10.0 mi South 11.5 mph - 0.00 in   Partly Cloudy
2:50 AM 55.4 °F - 51.8 °F 88% 30.04 in 10.0 mi South 11.5 mph - 0.00 in   Clear
3:10 AM 55.4 °F - 51.8 °F 88% 30.03 in 10.0 mi South 10.4 mph - 0.00 in   Clear
3:50 AM 55.4 °F - 51.8 °F 88% 30.02 in 10.0 mi South 12.7 mph - 0.00 in   Mostly Cloudy
4:10 AM 57.2 °F - 51.8 °F 82% 30.02 in 10.0 mi South 11.5 mph - 0.00 in   Mostly Cloudy
4:30 AM 57.2 °F - 51.8 °F 82% 30.01 in 10.0 mi South 13.8 mph - 0.00 in   Overcast
4:50 AM 57.2 °F - 51.8 °F 82% 30.01 in 10.0 mi South 13.8 mph 19.6 mph 0.00 in   Overcast
5:10 AM 57.2 °F - 51.8 °F 82% 30.01 in 10.0 mi South 12.7 mph - 0.00 in   Overcast
5:30 AM 57.2 °F - 51.8 °F 82% 30.01 in 10.0 mi South 12.7 mph 21.9 mph 0.00 in   Mostly Cloudy
5:45 AM 57.2 °F - 51.8 °F 82% 30.01 in 10.0 mi South 16.1 mph 20.7 mph 0.00 in   Overcast
6:10 AM 59.0 °F - 51.8 °F 77% 30.01 in 10.0 mi South 16.1 mph - 0.00 in   Overcast
6:30 AM 59.0 °F - 51.8 °F 77% 30.01 in 10.0 mi South 17.3 mph - 0.00 in   Overcast
6:50 AM 59.0 °F - 51.8 °F 77% 30.02 in 10.0 mi South 13.8 mph 19.6 mph 0.00 in   Overcast
7:10 AM 57.2 °F - 51.8 °F 82% 30.02 in 10.0 mi South 13.8 mph - 0.00 in   Overcast
7:30 AM 57.2 °F - 51.8 °F 82% 30.02 in 10.0 mi South 12.7 mph - 0.00 in   Mostly Cloudy
7:50 AM 57.2 °F - 51.8 °F 82% 30.02 in 10.0 mi South 16.1 mph 19.6 mph 0.00 in   Mostly Cloudy
8:10 AM 57.2 °F - 51.8 °F 82% 30.02 in 10.0 mi South 13.8 mph 18.4 mph 0.00 in   Scattered Clouds
8:30 AM 57.2 °F - 51.8 °F 82% 30.02 in 10.0 mi South 11.5 mph 19.6 mph 0.00 in   Scattered Clouds
8:50 AM 57.2 °F - 51.8 °F 82% 30.02 in 10.0 mi South 12.7 mph 17.3 mph 0.00 in   Overcast
9:10 AM 59.0 °F - 51.8 °F 77% 30.02 in 10.0 mi SSW 12.7 mph - 0.00 in   Overcast
9:30 AM 59.0 °F - 51.8 °F 77% 30.02 in 10.0 mi SSW 13.8 mph - 0.00 in   Overcast
9:50 AM 59.0 °F - 53.6 °F 82% 30.02 in 10.0 mi SSW 13.8 mph 20.7 mph 0.00 in   Mostly Cloudy
10:10 AM 60.8 °F - 53.6 °F 77% 30.02 in 10.0 mi SSW 15.0 mph - 0.00 in   Mostly Cloudy
10:30 AM 60.8 °F - 53.6 °F 77% 30.02 in 10.0 mi SSW 17.3 mph 23.0 mph 0.00 in   Mostly Cloudy
10:50 AM 60.8 °F - 53.6 °F 77% 30.01 in 10.0 mi SSW 17.3 mph 26.5 mph 0.00 in   Overcast
11:10 AM 60.8 °F - 53.6 °F 77% 30.01 in 10.0 mi SSW 13.8 mph - 0.00 in   Overcast
11:30 AM 60.8 °F - 55.4 °F 82% 30.00 in 10.0 mi SSW 19.6 mph - 0.00 in   Overcast
11:50 AM 60.8 °F - 55.4 °F 82% 29.99 in 10.0 mi SSW 19.6 mph 23.0 mph 0.00 in   Overcast
12:10 PM 60.8 °F - 55.4 °F 82% 29.98 in 10.0 mi SSW 15.0 mph - 0.00 in   Overcast
12:30 PM 60.8 °F - 55.4 °F 82% 29.97 in 10.0 mi SSW 17.3 mph 20.7 mph 0.00 in   Overcast
1:10 PM 60.8 °F - 57.2 °F 88% 29.97 in 3.0 mi SW 16.1 mph 25.3 mph 0.02 in   Overcast
1:30 PM 55.4 °F - 55.4 °F 100% 29.98 in 1.2 mi NW 17.3 mph 20.7 mph 0.07 in   Overcast
1:50 PM 51.8 °F - 51.8 °F 100% 29.98 in 2.0 mi NW 12.7 mph 19.6 mph 0.10 in   Overcast
2:10 PM 50.0 °F - 50.0 °F 100% 29.99 in 1.2 mi NW 9.2 mph - 0.03 in   Overcast
2:30 PM 48.2 °F - 48.2 °F 100% 30.00 in 2.5 mi NNW 12.7 mph 17.3 mph 0.06 in   Overcast
2:50 PM 48.2 °F - 48.2 °F 100% 30.02 in 1.8 mi NW 11.5 mph 20.7 mph 0.08 in   Overcast
3:10 PM 46.4 °F 41.5 °F 46.4 °F 100% 30.00 in 1.8 mi NNW 10.4 mph - 0.02 in   Overcast
3:30 PM 46.4 °F 41.1 °F 46.4 °F 100% 30.02 in 2.0 mi NW 11.5 mph 20.7 mph 0.04 in   Overcast
3:50 PM 42.8 °F 35.8 °F 42.8 °F 100% 30.03 in 3.0 mi NNW 13.8 mph 20.7 mph 0.07 in   Overcast
4:10 PM 42.8 °F 37.0 °F 42.8 °F 100% 30.05 in 3.0 mi NW 10.4 mph 17.3 mph 0.01 in   Overcast
4:30 PM 42.8 °F 38.6 °F 42.8 °F 100% 30.06 in 3.0 mi NW 6.9 mph - 0.03 in   Overcast
4:50 PM 42.8 °F 38.6 °F 42.8 °F 100% 30.06 in 5.0 mi NW 6.9 mph - 0.05 in   Overcast
5:10 PM 42.8 °F 37.0 °F 42.8 °F 100% 30.05 in 6.0 mi NNW 10.4 mph - 0.01 in   Overcast
5:30 PM 42.8 °F 38.6 °F 42.8 °F 100% 30.07 in 8.0 mi NW 6.9 mph - 0.01 in   Overcast
5:50 PM 42.8 °F 41.1 °F 42.8 °F 100% 30.09 in 10.0 mi WNW 3.5 mph - 0.02 in   Overcast
6:10 PM 42.8 °F 40.1 °F 42.8 °F 100% 30.09 in 10.0 mi WNW 4.6 mph - 0.00 in   Overcast
6:30 PM 42.8 °F 40.1 °F 42.8 °F 100% 30.10 in 10.0 mi NW 4.6 mph - 0.00 in   Overcast
6:50 PM 42.8 °F 41.1 °F 42.8 °F 100% 30.10 in 10.0 mi NW 3.5 mph - 0.00 in   Overcast
7:10 PM 42.8 °F - 42.8 °F 100% 30.11 in 10.0 mi Calm Calm - 0.00 in   Overcast
7:30 PM 42.8 °F 41.1 °F 42.8 °F 100% 30.11 in 10.0 mi West 3.5 mph - 0.00 in   Overcast
7:50 PM 42.8 °F 41.1 °F 42.8 °F 100% 30.12 in 10.0 mi West 3.5 mph - 0.00 in   Scattered Clouds
8:10 PM 41.0 °F 38.0 °F 41.0 °F 100% 30.12 in 10.0 mi West 4.6 mph - 0.00 in   Clear
8:30 PM 39.2 °F 37.0 °F 39.2 °F 100% 30.13 in 10.0 mi West 3.5 mph - 0.00 in   Clear
8:50 PM 41.0 °F 38.0 °F 41.0 °F 100% 30.13 in 10.0 mi WSW 4.6 mph - 0.00 in   Clear
9:10 PM 41.0 °F 39.0 °F 41.0 °F 100% 30.13 in 10.0 mi WSW 3.5 mph - 0.00 in   Clear
9:30 PM 41.0 °F 39.0 °F 41.0 °F 100% 30.13 in 10.0 mi WSW 3.5 mph - 0.00 in   Clear
9:50 PM 39.2 °F 37.0 °F 39.2 °F 100% 30.13 in 9.0 mi West 3.5 mph - 0.00 in   Clear
10:10 PM 39.2 °F - 39.2 °F 100% 30.14 in 10.0 mi Calm Calm - 0.00 in   Clear
10:30 PM 39.2 °F 37.0 °F 39.2 °F 100% 30.14 in 10.0 mi SW 3.5 mph - 0.00 in   Clear
10:50 PM 39.2 °F 35.0 °F 39.2 °F 100% 30.15 in 10.0 mi SW 5.8 mph - 0.00 in   Clear
11:10 PM 39.2 °F 37.0 °F 39.2 °F 100% 30.15 in 10.0 mi SSW 3.5 mph - 0.00 in   Clear
11:30 PM 39.2 °F 37.0 °F 39.2 °F 100% 30.15 in 10.0 mi SSW 3.5 mph - 0.00 in   Clear
11:50 PM 37.4 °F 33.8 °F 37.4 °F 100% 30.15 in 10.0 mi South 4.6 mph - 0.00 in   Clear